TimeCDT,TemperatureF,Dew PointF,Humidity,Sea Level PressureIn,VisibilityMPH,Wind Direction,Wind SpeedMPH,Gust SpeedMPH,PrecipitationIn,Events,Conditions,WindDirDegrees,DateUTC
12:55 AM,46.0,35.1,66,30.00,10.0,South,3.5,-,N/A,,Clear,170,2009-05-12 05:55:00
1:55 AM,44.1,35.1,71,29.98,10.0,SSE,4.6,-,N/A,,Mostly Cloudy,150,2009-05-12 06:55:00
2:55 AM,44.1,37.0,76,29.96,10.0,Calm,Calm,-,N/A,,Mostly Cloudy,0,2009-05-12 07:55:00
3:55 AM,41.0,36.0,82,29.95,10.0,ESE,5.8,-,N/A,,Scattered Clouds,120,2009-05-12 08:55:00
4:55 AM,41.0,36.0,82,29.93,10.0,ESE,5.8,-,N/A,,Clear,120,2009-05-12 09:55:00
5:55 AM,44.1,37.9,79,29.91,10.0,SE,6.9,-,N/A,,Overcast,130,2009-05-12 10:55:00
6:55 AM,46.9,39.0,74,29.90,10.0,SE,6.9,-,N/A,,Mostly Cloudy,130,2009-05-12 11:55:00
7:55 AM,52.0,37.9,59,29.89,10.0,SSE,11.5,-,N/A,,Overcast,150,2009-05-12 12:55:00
8:55 AM,46.9,43.0,86,29.89,10.0,SE,11.5,-,0.00,Rain,Light Rain,140,2009-05-12 13:55:00
9:55 AM,48.9,44.1,83,29.85,10.0,SE,15.0,23.0,0.00,Rain,Light Rain,130,2009-05-12 14:55:00
10:55 AM,51.1,45.0,80,29.85,10.0,SSE,10.4,-,0.00,,Overcast,150,2009-05-12 15:55:00
11:55 AM,51.1,48.0,89,29.83,9.0,SSE,9.2,-,0.00,Rain,Light Rain,150,2009-05-12 16:55:00
12:03 PM,51.8,48.2,88,29.80,10.0,SSE,8.1,-,0.00,,Overcast,150,2009-05-12 17:03:00
12:55 PM,50.0,48.0,93,29.82,2.5,SSE,5.8,-,0.09,Rain,Rain,150,2009-05-12 17:55:00
1:13 PM,50.0,48.2,94,29.78,4.0,SE,12.7,-,0.06,Rain,Light Rain,140,2009-05-12 18:13:00
1:31 PM,50.0,48.2,94,29.78,2.5,SE,10.4,-,0.10,Rain,Rain,140,2009-05-12 18:31:00
1:55 PM,48.9,46.9,93,29.81,2.5,SE,8.1,-,0.17,Rain,Light Rain,140,2009-05-12 18:55:00
2:17 PM,48.2,46.4,93,29.76,5.0,SE,9.2,-,0.06,Rain,Light Rain,130,2009-05-12 19:17:00
2:55 PM,48.9,46.0,90,29.78,10.0,East,11.5,-,0.07,,Overcast,100,2009-05-12 19:55:00
3:30 PM,48.2,46.4,93,29.73,10.0,East,10.4,-,0.01,,Overcast,100,2009-05-12 20:30:00
3:55 PM,48.9,46.0,90,29.75,10.0,East,11.5,-,0.01,,Overcast,100,2009-05-12 20:55:00
4:55 PM,48.0,46.0,93,29.73,10.0,ESE,8.1,-,N/A,,Overcast,110,2009-05-12 21:55:00
5:25 PM,48.2,46.4,93,29.69,10.0,ESE,4.6,-,0.00,,Overcast,110,2009-05-12 22:25:00
5:43 PM,50.0,48.2,94,29.68,9.0,ESE,6.9,-,0.00,,Overcast,120,2009-05-12 22:43:00
5:55 PM,50.0,48.0,93,29.71,9.0,ESE,8.1,-,0.00,,Overcast,110,2009-05-12 22:55:00
6:50 PM,51.8,50.0,94,29.65,8.0,ESE,5.8,-,N/A,,Overcast,110,2009-05-12 23:50:00
6:55 PM,52.0,50.0,93,29.68,8.0,SE,4.6,-,0.00,Rain,Light Rain,130,2009-05-12 23:55:00
7:55 PM,53.1,50.0,89,29.67,2.5,SSE,10.4,-,0.09,Rain,Rain,150,2009-05-13 00:55:00
8:08 PM,53.6,50.0,88,29.64,3.0,SE,10.4,-,0.04,Rain,Rain,130,2009-05-13 01:08:00
8:17 PM,51.8,50.0,94,29.64,2.5,SE,11.5,-,0.06,Rain,Rain,130,2009-05-13 01:17:00
8:36 PM,51.8,50.0,94,29.63,6.0,ESE,10.4,-,0.12,Rain,Light Rain,120,2009-05-13 01:36:00
8:55 PM,52.0,50.0,93,29.67,4.0,ESE,10.4,-,0.16,Rain,Rain,110,2009-05-13 01:55:00
9:55 PM,52.0,48.9,89,29.63,4.0,ESE,13.8,-,0.08,Rain,Rain,110,2009-05-13 02:55:00
10:55 PM,51.1,48.0,89,29.57,10.0,ESE,15.0,-,0.06,,Overcast,110,2009-05-13 03:55:00
11:55 PM,51.1,48.0,89,29.55,10.0,ESE,12.7,23.0,N/A,,Overcast,120,2009-05-13 04:55:00